[TLELIST] Archives

 

[list_settings.list_name] Current TLEs

March 28th 2010 PST

HST 1 20580U 90037B 10085.13072512 .00000591 00000-0 32446-4 0 5409 2 20580 028.4693 062.0538 0003273 041.8770 318.2061 15.00930404892269 ISS (ZARYA) 1 25544U 98067A 10086.47808674 .00024353 00000-0 17164-3 0 8537 2 25544 051.6452 290.0789 0006635 113.1952 328.2189 15.73919068650601 CXO 1 25867U 99040B 10087.08333333 .00000288 00000-0 10000-3 0 4438 2 25867 066.7413 057.4025 8033619 275.2308 358.5227 00.37809712 6080 ____________________________________________________________________ These 2-Line ...Continue Reading

[list_settings.list_name] Current TLEs

March 27th 2010 PST

HST 1 20580U 90037B 10085.13072512 .00000591 00000-0 32446-4 0 5409 2 20580 028.4693 062.0538 0003273 041.8770 318.2061 15.00930404892269 ISS (ZARYA) 1 25544U 98067A 10085.14715436 .00058467 00000-0 40508-3 0 8444 2 25544 051.6444 296.9146 0006518 108.6044 346.6874 15.73875653650397 CXO 1 25867U 99040B 10 81.86761205 .00000000 00000-0 10000-3 0 4433 2 25867 066.7177 057.6713 8026685 275.2550 008.4013 00.37816687 6079 ____________________________________________________________________ These 2-Line ...Continue Reading

[list_settings.list_name] Current TLEs

March 26th 2010 PST

HST 1 20580U 90037B 10083.13588562 .00000650 00000-0 37001-4 0 5390 2 20580 028.4695 075.0809 0003141 019.9274 340.1415 15.00929152891966 ISS (ZARYA) 1 25544U 98067A 10 84.17793933 .00051565 00000-0 35582-3 0 8419 2 25544 051.6433 301.8912 0006541 103.2619 256.9637 15.73829104650241 CXO 1 25867U 99040B 10 81.86761205 .00000000 00000-0 10000-3 0 4433 2 25867 066.7177 057.6713 8026685 275.2550 008.4013 00.37816687 6079 ____________________________________________________________________ These 2-Line ...Continue Reading

[list_settings.list_name] Current TLEs

March 25th 2010 PST

HST 1 20580U 90037B 10083.13588562 .00000650 00000-0 37001-4 0 5390 2 20580 028.4695 075.0809 0003141 019.9274 340.1415 15.00929152891966 ISS (ZARYA) 1 25544U 98067A 10083.24449311 .00014827 00000-0 10427-3 0 8336 2 25544 051.6467 306.6771 0007569 083.0542 024.7360 15.74373093650094 CXO 1 25867U 99040B 10081.79166667 .00000185 00000-0 10000-3 0 4418 2 25867 066.7230 057.7195 8020760 275.2298 358.0130 00.37798666 6060 ____________________________________________________________________ These 2-Line ...Continue Reading

[list_settings.list_name] Current TLEs

March 24th 2010 PST

HST 1 20580U 90037B 10080.47609835 .00000682 00000-0 39483-4 0 5381 2 20580 028.4687 092.4399 0003178 350.2776 009.7869 15.00926714891560 ISS (ZARYA) 1 25544U 98067A 10082.17162449 .00017110 00000-0 11975-3 0 8271 2 25544 051.6469 312.1893 0007445 079.7384 063.2896 15.74347849649924 CXO 1 25867U 99040B 10081.79166667 .00000185 00000-0 10000-3 0 4418 2 25867 066.7230 057.7195 8020760 275.2298 358.0130 00.37798666 6060 ____________________________________________________________________ These 2-Line ...Continue Reading

[list_settings.list_name] Current TLEs

March 23rd 2010 PST

HST 1 20580U 90037B 10080.47609835 .00000682 00000-0 39483-4 0 5381 2 20580 028.4687 092.4399 0003178 350.2776 009.7869 15.00926714891560 ISS (ZARYA) 1 25544U 98067A 10081.27639013 .00018368 00000-0 12836-3 0 8225 2 25544 051.6468 316.7886 0007554 075.8582 029.9352 15.74321225649783 CXO 1 25867U 99040B 10081.79166667 .00000185 00000-0 10000-3 0 4418 2 25867 066.7230 057.7195 8020760 275.2298 358.0130 00.37798666 6060 ____________________________________________________________________ These 2-Line ...Continue Reading

[list_settings.list_name] Current TLEs

March 22nd 2010 PST

HST 1 20580U 90037B 10077.15135467 .00000613 00000-0 34193-4 0 5373 2 20580 028.4686 114.1449 0003251 309.5084 050.5268 15.00922806891068 ISS (ZARYA) 1 25544U 98067A 10079.87160709 .00023720 00000-0 16467-3 0 8119 2 25544 051.6470 324.0027 0007706 072.4095 346.4824 15.74280810649567 CXO 1 25867U 99040B 10079.08333333 .00000218 00000-0 10000-3 0 4409 2 25867 066.7113 057.8359 8018390 275.2630 349.2250 00.37803205 6059 ____________________________________________________________________ These 2-Line ...Continue Reading

[list_settings.list_name] Current TLEs

March 20th 2010 PST

HST 1 20580U 90037B 10077.15135467 .00000613 00000-0 34193-4 0 5373 2 20580 028.4686 114.1449 0003251 309.5084 050.5268 15.00922806891068 ISS (ZARYA) 1 25544U 98067A 10078.29189975 .00024650 00000-0 17147-3 0 8029 2 25544 051.6481 332.1158 0007732 066.1178 034.1115 15.74207467649319 CXO 1 25867U 99040B 10079.08333333 .00000218 00000-0 10000-3 0 4409 2 25867 066.7113 057.8359 8018390 275.2630 349.2250 00.37803205 6059 ____________________________________________________________________ These 2-Line ...Continue Reading

[list_settings.list_name] Current TLEs

March 19th 2010 PST

HST 1 20580U 90037B 10077.15135467 .00000613 00000-0 34193-4 0 5373 2 20580 028.4686 114.1449 0003251 309.5084 050.5268 15.00922806891068 ISS (ZARYA) 1 25544U 98067A 10077.27423848 .00025225 00000-0 17573-3 0 7960 2 25544 051.6479 337.3425 0007732 062.3690 026.8345 15.74158152649158 CXO 1 25867U 99040B 10076.45833333 .00000243 00000-0 10000-3 0 4398 2 25867 066.6943 057.9815 8017560 275.2560 351.8592 00.37808501 6048 ____________________________________________________________________ These 2-Line ...Continue Reading

[list_settings.list_name] Current TLEs

March 18th 2010 PST

HST 1 20580U 90037B 10074.55805056 .00000594 00000-0 32686-4 0 5364 2 20580 028.4690 131.0720 0003256 281.9683 078.0554 15.00920402890675 ISS (ZARYA) 1 25544U 98067A 10076.32391363 .00025404 00000-0 17730-3 0 7909 2 25544 051.6480 342.2229 0007722 060.1379 040.0664 15.74110709649008 CXO 1 25867U 99040B 10076.45833333 .00000243 00000-0 10000-3 0 4398 2 25867 066.6943 057.9815 8017560 275.2560 351.8592 00.37808501 6048 ____________________________________________________________________ These 2-Line ...Continue Reading
  • This mailing list is a public mailing list - anyone may join or leave, at any time.
  • This mailing list is announce-only.

International Space Station (ISS) / Hubble Space Telescope (HST) / Chandra X-Ray Observatory Orbital Data via EMAIL

Privacy Policy:

Private list